User: anonymous   Login
Location: Slidell
(30.2789°N, 89.7378°W)
Time: 12:51:21
(UTC-05:00)
Language:

Cosmos 2360 Rocket - Orbit

View from above orbital plane
View from above orbital plane
View from above satellite
View from above satellite

Ground track
Ground track

The orbit data is extracted from the following two-line orbital elements,

1 25407U 98045B   16210.62292254 -.00000197  00000-0 -76247-4 0  9995
2 25407  71.0105   1.3833 0008766 326.2301  33.8263 14.15746318930384
Epoch (UTC): 28 July 2016 14:57:00
Eccentricity: 0.0008766
inclination: 71.0105°
perigee height: 833 km
apogee height: 846 km
right ascension of ascending node: 1.3833°
argument of perigee: 326.2301°
revolutions per day: 14.15746318
mean anomaly at epoch: 33.8263°
orbit number at epoch: 93038

The dashed part of the orbit path shows where the satellite is in the earth's shadow,  

DLR